COSMOS 2201

Satellite information

Favourite Embed

Satellite Type and Status

PAYLOADIN ORBIT

Key statistics

Satellite COSMOS 2201 at a glance.

Uptime

12161

Days in orbit

Revolutions

≈ 12.6

Per day

Orbit

LEO

Low Earth Orbit

Inclination

82.6

Latest

Satellite identification and parameters

Extended collection of information and parameters for COSMOS 2201.

Object identification

Identified? True

Debris? False

Object name: COSMOS 2201

International designator: 1992-042E

Object number (NORAD): 22038

Object ID (CCSDS): 22038

Country: COMMONWEALTH OF INDEPENDENT STATES (CIS)

Current information (Y/N): Y

RCS size: LARGE

Orbital parameters

Period: 114.125 minutes

Inclination: 82.593 deg

SMA: 7793.746 km

Apoapsis: 1423.295 km

Periapsis: 1407.926 km

RAAN: 47.994 deg

Eccentricy: 0.000986

Argument of periapsis: 122.1039 deg

Mean anomaly: 300.4176 deg

Mean motion: 12.61779383 rev/day

Mean motion (dot): 0.00000038 rev/day2

B* drag term: 0.00015249224 1/REarth

Two-line elements (TLE)

Creation date: Oct. 28, 2025, 7:11 p.m.

Reference frame: TEME

Reference center: EARTH

Epoch: Oct. 28, 2025, 8:52 a.m. UTC

TLE line 0: 0 COSMOS 2201

TLE line 1: 1 22038U 92042E 25301.36971738 .00000038 00000-0 15249-3 0 9992

TLE line 2: 2 22038 82.5930 47.9940 0009860 122.1039 300.4176 12.61779383533063

Live tracking on map

Real-time ground track for satellite COSMOS 2201.

In-orbit conjunctions

A list of the most updated potential collisions computed for object COSMOS 2201.

Target Orbit TCA Probability of collision Miss distance Type
SL-14 R/B LEO 2025-07-02 05:37:30 0.0002457806 70.0 (m) ROCKET BODY
BREEZE-KM DEB LEO 2025-03-15 21:55:10 0.0001603613 745.0 (m) DEBRIS
DELTA 1 DEB SSO 2025-03-02 19:52:03 0.0004731766 72.0 (m) DEBRIS

Associated space launch

Second generation store-dump military communications satellite

COSMOS 2201 was lifted into orbit during the mission ‘Tsiklon-3 | Strela-3 79 to 82’, on board a Tsiklon-3 space rocket.

The launch took place on July 13, 1992, 5:41 p.m. from 32/1.

For more information about the launch, click the button.

Launch to space Tsiklon-3 | Strela-3 79 to 82
Tsiklon-3 | Strela-3 79 to 82

Agency: N/A

Status: Launch Successful

Launch date: July 13, 1992, 5:41 p.m. UTC

Rocket: Tsiklon-3

Launch pad: 32/1

Location: Plesetsk Cosmodrome, Russian Federation

...

Latest news about this satellite

There are no fresh news available about this satellite. Check back as we update our databases every day.


Newsletter sign-up

Weekly statistics, charts and insights to help you stay on top of the space industry.